Year,Month,Day,Hour,Minute,Value (Times are PST for temperature in C)
2018,04,26,00,00,12.70
2018,04,26,00,01,12.60
2018,04,26,00,02,12.60
2018,04,26,00,03,12.60
2018,04,26,00,04,12.50
2018,04,26,00,05,12.40
2018,04,26,00,06,12.40
2018,04,26,00,07,12.30
2018,04,26,00,08,12.30
2018,04,26,00,09,12.20
2018,04,26,00,10,12.10
2018,04,26,00,11,12.10
2018,04,26,00,12,12.10
2018,04,26,00,13,12.10
2018,04,26,00,14,12.10
2018,04,26,00,15,12.00
2018,04,26,00,16,12.00
2018,04,26,00,17,12.00
2018,04,26,00,18,12.10
2018,04,26,00,19,12.30
2018,04,26,00,20,12.40
2018,04,26,00,21,12.60
2018,04,26,00,22,12.60
2018,04,26,00,23,12.70
2018,04,26,00,24,12.80
2018,04,26,00,25,12.90
2018,04,26,00,26,13.10
2018,04,26,00,27,13.30
2018,04,26,00,28,13.50
2018,04,26,00,29,13.70
2018,04,26,00,30,13.90
2018,04,26,00,31,14.00
2018,04,26,00,32,14.00
2018,04,26,00,33,13.90
2018,04,26,00,34,13.90
2018,04,26,00,35,13.90
2018,04,26,00,36,13.90
2018,04,26,00,37,13.80
2018,04,26,00,38,13.70
2018,04,26,00,39,13.70
2018,04,26,00,40,13.70
2018,04,26,00,41,13.60
2018,04,26,00,42,13.60
2018,04,26,00,43,13.50
2018,04,26,00,44,13.50
2018,04,26,00,45,13.50
2018,04,26,00,46,13.50
2018,04,26,00,47,13.50
2018,04,26,00,48,13.60
2018,04,26,00,49,13.50
2018,04,26,00,50,13.60
2018,04,26,00,51,13.50
2018,04,26,00,52,13.50
2018,04,26,00,53,13.50
2018,04,26,00,54,13.40
2018,04,26,00,55,13.50
2018,04,26,00,56,13.50
2018,04,26,00,57,13.50
2018,04,26,00,58,13.60
2018,04,26,00,59,13.50
2018,04,26,01,00,13.50
2018,04,26,01,01,13.40
2018,04,26,01,02,13.40
2018,04,26,01,03,13.40
2018,04,26,01,04,13.40
2018,04,26,01,05,13.50
2018,04,26,01,06,13.60
2018,04,26,01,07,13.70
2018,04,26,01,08,13.80
2018,04,26,01,09,13.90
2018,04,26,01,10,14.00
2018,04,26,01,11,14.10
2018,04,26,01,12,14.10
2018,04,26,01,13,14.20
2018,04,26,01,14,14.20
2018,04,26,01,15,14.20
2018,04,26,01,16,14.20
2018,04,26,01,17,14.30
2018,04,26,01,18,14.30
2018,04,26,01,19,14.30
2018,04,26,01,20,14.30
2018,04,26,01,21,14.30
2018,04,26,01,22,14.30
2018,04,26,01,23,14.20
2018,04,26,01,24,14.20
2018,04,26,01,25,14.20
2018,04,26,01,26,14.20
2018,04,26,01,27,14.10
2018,04,26,01,28,14.10
2018,04,26,01,29,14.10
2018,04,26,01,30,14.10
2018,04,26,01,31,14.00
2018,04,26,01,32,14.00
2018,04,26,01,33,13.90
2018,04,26,01,34,13.80
2018,04,26,01,35,13.80
2018,04,26,01,36,13.80
2018,04,26,01,37,13.70
2018,04,26,01,38,13.70
2018,04,26,01,39,13.70
2018,04,26,01,40,13.60
2018,04,26,01,41,13.60
2018,04,26,01,42,13.50
2018,04,26,01,43,13.50
2018,04,26,01,44,13.50
2018,04,26,01,45,13.50
2018,04,26,01,46,13.50
2018,04,26,01,47,13.50
2018,04,26,01,48,13.50
2018,04,26,01,49,13.40
2018,04,26,01,50,13.40
2018,04,26,01,51,13.40
2018,04,26,01,52,13.40
2018,04,26,01,53,13.30
2018,04,26,01,54,13.30
2018,04,26,01,55,13.30
2018,04,26,01,56,13.30
2018,04,26,01,57,13.30
2018,04,26,01,58,13.40
2018,04,26,01,59,13.40
2018,04,26,02,00,13.50
2018,04,26,02,01,13.50
2018,04,26,02,02,13.50
2018,04,26,02,03,13.50
2018,04,26,02,04,13.50
2018,04,26,02,05,13.50
2018,04,26,02,06,13.40
2018,04,26,02,07,13.40
2018,04,26,02,08,13.40
2018,04,26,02,09,13.30
2018,04,26,02,10,13.30
2018,04,26,02,11,13.20
2018,04,26,02,12,13.10
2018,04,26,02,13,13.00
2018,04,26,02,14,13.00
2018,04,26,02,15,13.00
2018,04,26,02,16,13.00
2018,04,26,02,17,12.90
2018,04,26,02,18,12.90
2018,04,26,02,19,12.80
2018,04,26,02,20,12.80
2018,04,26,02,21,12.70
2018,04,26,02,22,12.70
2018,04,26,02,23,12.70
2018,04,26,02,24,12.70
2018,04,26,02,25,12.70
2018,04,26,02,26,12.70
2018,04,26,02,27,12.70
2018,04,26,02,28,12.70
2018,04,26,02,29,12.70
2018,04,26,02,30,12.70
2018,04,26,02,31,12.60
2018,04,26,02,32,12.60
2018,04,26,02,33,12.50
2018,04,26,02,34,12.50
2018,04,26,02,35,12.40
2018,04,26,02,36,12.40
2018,04,26,02,37,12.40
2018,04,26,02,38,12.40
2018,04,26,02,39,12.50
2018,04,26,02,40,12.50
2018,04,26,02,41,12.60
2018,04,26,02,42,12.60
2018,04,26,02,43,12.60
2018,04,26,02,44,12.60
2018,04,26,02,45,12.60
2018,04,26,02,46,12.50
2018,04,26,02,47,12.50
2018,04,26,02,48,12.50
2018,04,26,02,49,12.50
2018,04,26,02,50,12.40
2018,04,26,02,51,12.40
2018,04,26,02,52,12.30
2018,04,26,02,53,12.20
2018,04,26,02,54,12.10
2018,04,26,02,55,12.00
2018,04,26,02,56,11.90
2018,04,26,02,57,11.90
2018,04,26,02,58,11.80
2018,04,26,02,59,11.80
2018,04,26,03,00,11.80
2018,04,26,03,01,11.70
2018,04,26,03,02,11.70
2018,04,26,03,03,11.70
2018,04,26,03,04,11.70
2018,04,26,03,05,11.70
2018,04,26,03,06,11.70
2018,04,26,03,07,11.70
2018,04,26,03,08,11.70
2018,04,26,03,09,11.70
2018,04,26,03,10,11.70
2018,04,26,03,11,11.60
2018,04,26,03,12,11.60
2018,04,26,03,13,11.60
2018,04,26,03,14,11.50
2018,04,26,03,15,11.50
2018,04,26,03,16,11.40
2018,04,26,03,17,11.40
2018,04,26,03,18,11.40
2018,04,26,03,19,11.40
2018,04,26,03,20,11.40
2018,04,26,03,21,11.40
2018,04,26,03,22,11.40
2018,04,26,03,23,11.40
2018,04,26,03,24,11.30
2018,04,26,03,25,11.30
2018,04,26,03,26,11.30
2018,04,26,03,27,11.30
2018,04,26,03,28,11.20
2018,04,26,03,29,11.20
2018,04,26,03,30,11.10
2018,04,26,03,31,11.10
2018,04,26,03,32,11.10
2018,04,26,03,33,11.00
2018,04,26,03,34,11.00
2018,04,26,03,35,11.00
2018,04,26,03,36,10.90
2018,04,26,03,37,10.90
2018,04,26,03,38,10.90
2018,04,26,03,39,10.90
2018,04,26,03,40,10.90
2018,04,26,03,41,10.80
2018,04,26,03,42,10.80
2018,04,26,03,43,10.80
2018,04,26,03,44,10.80
2018,04,26,03,45,10.70
2018,04,26,03,46,10.70
2018,04,26,03,47,10.70
2018,04,26,03,48,10.70
2018,04,26,03,49,10.70
2018,04,26,03,50,10.60
2018,04,26,03,51,10.60
2018,04,26,03,52,10.60
2018,04,26,03,53,10.60
2018,04,26,03,54,10.60
2018,04,26,03,55,10.50
2018,04,26,03,56,10.50
2018,04,26,03,57,10.40
2018,04,26,03,58,10.40
2018,04,26,03,59,10.30
2018,04,26,04,00,10.20
2018,04,26,04,01,10.10
2018,04,26,04,02,10.10
2018,04,26,04,03,10.10
2018,04,26,04,04,10.10
2018,04,26,04,05,10.10
2018,04,26,04,06,10.20
2018,04,26,04,07,10.30
2018,04,26,04,08,10.30
2018,04,26,04,09,10.40
2018,04,26,04,10,10.40
2018,04,26,04,11,10.40
2018,04,26,04,12,10.40
2018,04,26,04,13,10.40
2018,04,26,04,14,10.40
2018,04,26,04,15,10.40
2018,04,26,04,16,10.40
2018,04,26,04,17,10.40
2018,04,26,04,18,10.40
2018,04,26,04,19,10.30
2018,04,26,04,20,10.30
2018,04,26,04,21,10.30
2018,04,26,04,22,10.30
2018,04,26,04,23,10.30
2018,04,26,04,24,10.20
2018,04,26,04,25,10.20
2018,04,26,04,26,10.20
2018,04,26,04,27,10.10
2018,04,26,04,28,10.10
2018,04,26,04,29,10.10
2018,04,26,04,30,10.00
2018,04,26,04,31,10.00
2018,04,26,04,32,10.00
2018,04,26,04,33,9.90
2018,04,26,04,34,9.90
2018,04,26,04,35,9.80
2018,04,26,04,36,9.80
2018,04,26,04,37,9.70
2018,04,26,04,38,9.70
2018,04,26,04,39,9.70
2018,04,26,04,40,9.70
2018,04,26,04,41,9.60
2018,04,26,04,42,9.60
2018,04,26,04,43,9.60
2018,04,26,04,44,9.50
2018,04,26,04,45,9.40
2018,04,26,04,46,9.40
2018,04,26,04,47,9.40
2018,04,26,04,48,9.40
2018,04,26,04,49,9.50
2018,04,26,04,50,9.50
2018,04,26,04,51,9.60
2018,04,26,04,52,9.60
2018,04,26,04,53,9.70
2018,04,26,04,54,9.70
2018,04,26,04,55,9.60
2018,04,26,04,56,9.60
2018,04,26,04,57,9.60
2018,04,26,04,58,9.60
2018,04,26,04,59,9.60
2018,04,26,05,00,9.60
2018,04,26,05,01,9.60
2018,04,26,05,02,9.60
2018,04,26,05,03,9.60
2018,04,26,05,04,9.60
2018,04,26,05,05,9.60
2018,04,26,05,06,9.60
2018,04,26,05,07,9.70
2018,04,26,05,08,9.70
2018,04,26,05,09,9.70
2018,04,26,05,10,9.60
2018,04,26,05,11,9.60
2018,04,26,05,12,9.60
2018,04,26,05,13,9.60
2018,04,26,05,14,9.60
2018,04,26,05,15,9.60
2018,04,26,05,16,9.60
2018,04,26,05,17,9.60
2018,04,26,05,18,9.60
2018,04,26,05,19,9.60
2018,04,26,05,20,9.60
2018,04,26,05,21,9.60
2018,04,26,05,22,9.60
2018,04,26,05,23,9.60
2018,04,26,05,24,9.60
2018,04,26,05,25,9.60
2018,04,26,05,26,9.60
2018,04,26,05,27,9.60
2018,04,26,05,28,9.60
2018,04,26,05,29,9.60
2018,04,26,05,30,9.50
2018,04,26,05,31,9.50
2018,04,26,05,32,9.50
2018,04,26,05,33,9.50
2018,04,26,05,34,9.40
2018,04,26,05,35,9.40
2018,04,26,05,36,9.40
2018,04,26,05,37,9.40
2018,04,26,05,38,9.30
2018,04,26,05,39,9.30
2018,04,26,05,40,9.30
2018,04,26,05,41,9.30
2018,04,26,05,42,9.20
2018,04,26,05,43,9.20
2018,04,26,05,44,9.20
2018,04,26,05,45,9.20
2018,04,26,05,46,9.20
2018,04,26,05,47,9.20
2018,04,26,05,48,9.20
2018,04,26,05,49,9.20
2018,04,26,05,50,9.20
2018,04,26,05,51,9.20
2018,04,26,05,52,9.30
2018,04,26,05,53,9.30
2018,04,26,05,54,9.30
2018,04,26,05,55,9.40
2018,04,26,05,56,9.40
2018,04,26,05,57,9.50
2018,04,26,05,58,9.50
2018,04,26,05,59,9.60
2018,04,26,06,00,9.50
2018,04,26,06,01,9.50
2018,04,26,06,02,9.50
2018,04,26,06,03,9.40
2018,04,26,06,04,9.40
2018,04,26,06,05,9.30
2018,04,26,06,06,9.30
2018,04,26,06,07,9.30
2018,04,26,06,08,9.30
2018,04,26,06,09,9.30
2018,04,26,06,10,9.30
2018,04,26,06,11,9.30
2018,04,26,06,12,9.30
2018,04,26,06,13,9.30
2018,04,26,06,14,9.30
2018,04,26,06,15,9.30
2018,04,26,06,16,9.30
2018,04,26,06,17,9.20
2018,04,26,06,18,9.20
2018,04,26,06,19,9.20
2018,04,26,06,20,9.20
2018,04,26,06,21,9.20
2018,04,26,06,22,9.20
2018,04,26,06,23,9.20
2018,04,26,06,24,9.20
2018,04,26,06,25,9.30
2018,04,26,06,26,9.40
2018,04,26,06,27,9.40
2018,04,26,06,28,9.50
2018,04,26,06,29,9.60
2018,04,26,06,30,9.60
2018,04,26,06,31,9.60
2018,04,26,06,32,9.70
2018,04,26,06,33,9.70
2018,04,26,06,34,9.70
2018,04,26,06,35,9.70
2018,04,26,06,36,9.70
2018,04,26,06,37,9.70
2018,04,26,06,38,9.70
2018,04,26,06,39,9.70
2018,04,26,06,40,9.70
2018,04,26,06,41,9.70
2018,04,26,06,42,9.70
2018,04,26,06,43,9.60
2018,04,26,06,44,9.60
2018,04,26,06,45,9.60
2018,04,26,06,46,9.60
2018,04,26,06,47,9.50
2018,04,26,06,48,9.50
2018,04,26,06,49,9.50
2018,04,26,06,50,9.50
2018,04,26,06,51,9.50
2018,04,26,06,52,9.50
2018,04,26,06,53,9.50
2018,04,26,06,54,9.50
2018,04,26,06,55,9.50
2018,04,26,06,56,9.50
2018,04,26,06,57,9.60
2018,04,26,06,58,9.60
2018,04,26,06,59,9.70
2018,04,26,07,00,9.80
2018,04,26,07,01,10.00
2018,04,26,07,02,10.10
2018,04,26,07,03,10.20
2018,04,26,07,04,10.30
2018,04,26,07,05,10.30
2018,04,26,07,06,10.30
2018,04,26,07,07,10.30
2018,04,26,07,08,10.30
2018,04,26,07,09,10.30
2018,04,26,07,10,10.30
2018,04,26,07,11,10.30
2018,04,26,07,12,10.30
2018,04,26,07,13,10.30
2018,04,26,07,14,10.30
2018,04,26,07,15,10.30
2018,04,26,07,16,10.40
2018,04,26,07,17,10.40
2018,04,26,07,18,10.40
2018,04,26,07,19,10.40
2018,04,26,07,20,10.40
2018,04,26,07,21,10.50
2018,04,26,07,22,10.50
2018,04,26,07,23,10.50
2018,04,26,07,24,10.60
2018,04,26,07,25,10.60
2018,04,26,07,26,10.70
2018,04,26,07,27,10.70
2018,04,26,07,28,10.70
2018,04,26,07,29,10.80
2018,04,26,07,30,10.80
2018,04,26,07,31,10.80
2018,04,26,07,32,10.90
2018,04,26,07,33,10.90
2018,04,26,07,34,11.00
2018,04,26,07,35,11.10
2018,04,26,07,36,11.10
2018,04,26,07,37,11.20
2018,04,26,07,38,11.20
2018,04,26,07,39,11.20
2018,04,26,07,40,11.30
2018,04,26,07,41,11.30
2018,04,26,07,42,11.30
2018,04,26,07,43,11.40
2018,04,26,07,44,11.40
2018,04,26,07,45,11.50
2018,04,26,07,46,11.50
2018,04,26,07,47,11.60
2018,04,26,07,48,11.60
2018,04,26,07,49,11.70
2018,04,26,07,50,11.80
2018,04,26,07,51,11.80
2018,04,26,07,52,11.80
2018,04,26,07,53,11.90
2018,04,26,07,54,12.00
2018,04,26,07,55,12.00
2018,04,26,07,56,12.10
2018,04,26,07,57,12.10
2018,04,26,07,58,12.20
2018,04,26,07,59,12.30
2018,04,26,08,00,12.30
2018,04,26,08,01,12.40
2018,04,26,08,02,12.50
2018,04,26,08,03,12.60
2018,04,26,08,04,12.60
2018,04,26,08,05,12.80
2018,04,26,08,06,12.80
2018,04,26,08,07,12.90
2018,04,26,08,08,13.00
2018,04,26,08,09,13.00
2018,04,26,08,10,13.10
2018,04,26,08,11,13.20
2018,04,26,08,12,13.20
2018,04,26,08,13,13.30
2018,04,26,08,14,13.30
2018,04,26,08,15,13.40
2018,04,26,08,16,13.40
2018,04,26,08,17,13.50
2018,04,26,08,18,13.60
2018,04,26,08,19,13.60
2018,04,26,08,20,13.70
2018,04,26,08,21,13.70
2018,04,26,08,22,13.80
2018,04,26,08,23,13.80
2018,04,26,08,24,13.80
2018,04,26,08,25,13.80
2018,04,26,08,26,13.90
2018,04,26,08,27,13.90
2018,04,26,08,28,13.90
2018,04,26,08,29,13.90
2018,04,26,08,30,13.90
2018,04,26,08,31,14.00
2018,04,26,08,32,14.00
2018,04,26,08,33,14.10
2018,04,26,08,34,14.10
2018,04,26,08,35,14.10
2018,04,26,08,36,14.10
2018,04,26,08,37,14.20
2018,04,26,08,38,14.20
2018,04,26,08,39,14.30
2018,04,26,08,40,14.30
2018,04,26,08,41,14.40
2018,04,26,08,42,14.40
2018,04,26,08,43,14.40
2018,04,26,08,44,14.50
2018,04,26,08,45,14.50
2018,04,26,08,46,14.60
2018,04,26,08,47,14.60
2018,04,26,08,48,14.70
2018,04,26,08,49,14.70
2018,04,26,08,50,14.70
2018,04,26,08,51,14.80
2018,04,26,08,52,14.80
2018,04,26,08,53,14.80
2018,04,26,08,54,14.80
2018,04,26,08,55,14.90
2018,04,26,08,56,14.90
2018,04,26,08,57,14.90
2018,04,26,08,58,15.00
2018,04,26,08,59,15.10
2018,04,26,09,00,15.10
2018,04,26,09,01,15.20
2018,04,26,09,02,15.20
2018,04,26,09,03,15.30
2018,04,26,09,04,15.40
2018,04,26,09,05,15.40
2018,04,26,09,06,15.40
2018,04,26,09,07,15.50
2018,04,26,09,08,15.50
2018,04,26,09,09,15.60
2018,04,26,09,10,15.60
2018,04,26,09,11,15.70
2018,04,26,09,12,15.70
2018,04,26,09,13,15.80
2018,04,26,09,14,15.90
2018,04,26,09,15,16.10
2018,04,26,09,16,16.30
2018,04,26,09,17,16.50
2018,04,26,09,18,16.70
2018,04,26,09,19,16.80
2018,04,26,09,20,16.80
2018,04,26,09,21,16.90
2018,04,26,09,22,16.90
2018,04,26,09,23,16.90
2018,04,26,09,24,16.90
2018,04,26,09,25,17.00
2018,04,26,09,26,17.00
2018,04,26,09,27,17.00
2018,04,26,09,28,17.20
2018,04,26,09,29,17.30
2018,04,26,09,30,17.30
2018,04,26,09,31,17.30
2018,04,26,09,32,17.40
2018,04,26,09,33,17.60
2018,04,26,09,34,17.60
2018,04,26,09,35,17.70
2018,04,26,09,36,17.70
2018,04,26,09,37,17.70
2018,04,26,09,38,17.70
2018,04,26,09,39,17.80
2018,04,26,09,40,17.80
2018,04,26,09,41,17.70
2018,04,26,09,42,17.70
2018,04,26,09,43,17.80
2018,04,26,09,44,17.70
2018,04,26,09,45,17.70
2018,04,26,09,46,17.60
2018,04,26,09,47,17.50
2018,04,26,09,48,17.40
2018,04,26,09,49,17.40
2018,04,26,09,50,17.30
2018,04,26,09,51,17.40
2018,04,26,09,52,17.50
2018,04,26,09,53,17.50
2018,04,26,09,54,17.50
2018,04,26,09,55,17.50
2018,04,26,09,56,17.40
2018,04,26,09,57,17.40
2018,04,26,09,58,17.40
2018,04,26,09,59,17.50
2018,04,26,10,00,17.60
2018,04,26,10,01,17.70
2018,04,26,10,02,17.70
2018,04,26,10,03,17.80
2018,04,26,10,04,17.80
2018,04,26,10,05,17.90
2018,04,26,10,06,17.90
2018,04,26,10,07,17.90
2018,04,26,10,08,17.90
2018,04,26,10,09,17.80
2018,04,26,10,10,17.80
2018,04,26,10,11,17.70
2018,04,26,10,12,17.70
2018,04,26,10,13,17.80
2018,04,26,10,14,17.80
2018,04,26,10,15,17.80
2018,04,26,10,16,17.80
2018,04,26,10,17,17.70
2018,04,26,10,18,17.60
2018,04,26,10,19,17.60
2018,04,26,10,20,17.50
2018,04,26,10,21,17.50
2018,04,26,10,22,17.40
2018,04,26,10,23,17.40
2018,04,26,10,24,17.40
2018,04,26,10,25,17.40
2018,04,26,10,26,17.40
2018,04,26,10,27,17.40
2018,04,26,10,28,17.40
2018,04,26,10,29,17.40
2018,04,26,10,30,17.40
2018,04,26,10,31,17.50
2018,04,26,10,32,17.50
2018,04,26,10,33,17.50
2018,04,26,10,34,17.40
2018,04,26,10,35,17.50
2018,04,26,10,36,17.50
2018,04,26,10,37,17.50
2018,04,26,10,38,17.50
2018,04,26,10,39,17.60
2018,04,26,10,40,17.60
2018,04,26,10,41,17.60
2018,04,26,10,42,17.60
2018,04,26,10,43,17.60
2018,04,26,10,44,17.70
2018,04,26,10,45,17.70
2018,04,26,10,46,17.80
2018,04,26,10,47,17.80
2018,04,26,10,48,17.90
2018,04,26,10,49,17.90
2018,04,26,10,50,17.90
2018,04,26,10,51,17.90
2018,04,26,10,52,17.90
2018,04,26,10,53,18.00
2018,04,26,10,54,18.00
2018,04,26,10,55,18.10
2018,04,26,10,56,18.20
2018,04,26,10,57,18.20
2018,04,26,10,58,18.20
2018,04,26,10,59,18.20
2018,04,26,11,00,18.20
2018,04,26,11,01,18.20
2018,04,26,11,02,18.20
2018,04,26,11,03,18.20
2018,04,26,11,04,18.20
2018,04,26,11,05,18.20
2018,04,26,11,06,18.30
2018,04,26,11,07,18.30
2018,04,26,11,08,18.20
2018,04,26,11,09,18.30
2018,04,26,11,10,18.30
2018,04,26,11,11,18.30
2018,04,26,11,12,18.30
2018,04,26,11,13,18.40
2018,04,26,11,14,18.50
2018,04,26,11,15,18.70
2018,04,26,11,16,18.80
2018,04,26,11,17,19.00
2018,04,26,11,18,19.20
2018,04,26,11,19,19.30
2018,04,26,11,20,19.50
2018,04,26,11,21,19.60
2018,04,26,11,22,19.60
2018,04,26,11,23,19.70
2018,04,26,11,24,19.70
2018,04,26,11,25,19.70
2018,04,26,11,26,19.70
2018,04,26,11,27,19.70
2018,04,26,11,28,19.70
2018,04,26,11,29,19.80
2018,04,26,11,30,19.80
2018,04,26,11,31,19.90
2018,04,26,11,32,19.90
2018,04,26,11,33,19.90
2018,04,26,11,34,19.80
2018,04,26,11,35,19.80
2018,04,26,11,36,19.90
2018,04,26,11,37,19.90
2018,04,26,11,38,20.00
2018,04,26,11,39,20.10
2018,04,26,11,40,20.10
2018,04,26,11,41,20.10
2018,04,26,11,42,20.00
2018,04,26,11,43,20.00
2018,04,26,11,44,19.90
2018,04,26,11,45,19.90
2018,04,26,11,46,19.90
2018,04,26,11,47,19.80
2018,04,26,11,48,19.80
2018,04,26,11,49,19.70
2018,04,26,11,50,19.60
2018,04,26,11,51,19.60
2018,04,26,11,52,19.60
2018,04,26,11,53,19.60
2018,04,26,11,54,19.60
2018,04,26,11,55,19.60
2018,04,26,11,56,19.70
2018,04,26,11,57,19.70
2018,04,26,11,58,19.80
2018,04,26,11,59,19.80
2018,04,26,12,00,19.80
2018,04,26,12,01,19.80
2018,04,26,12,02,19.80
2018,04,26,12,03,19.80
2018,04,26,12,04,19.70
2018,04,26,12,05,19.70
2018,04,26,12,06,19.70
2018,04,26,12,07,19.80
2018,04,26,12,08,19.80
2018,04,26,12,09,19.80
2018,04,26,12,10,19.90
2018,04,26,12,11,20.10
2018,04,26,12,12,20.20
2018,04,26,12,13,20.30
2018,04,26,12,14,20.40
2018,04,26,12,15,20.60
2018,04,26,12,16,20.70
2018,04,26,12,17,20.80
2018,04,26,12,18,20.80
2018,04,26,12,19,20.70
2018,04,26,12,20,20.50
2018,04,26,12,21,20.30
2018,04,26,12,22,20.20
2018,04,26,12,23,20.20
2018,04,26,12,24,20.20
2018,04,26,12,25,20.10
2018,04,26,12,26,20.10
2018,04,26,12,27,20.10
2018,04,26,12,28,20.20
2018,04,26,12,29,20.30
2018,04,26,12,30,20.40
2018,04,26,12,31,20.50
2018,04,26,12,32,20.50
2018,04,26,12,33,20.60
2018,04,26,12,34,20.70
2018,04,26,12,35,20.70
2018,04,26,12,36,20.70
2018,04,26,12,37,20.70
2018,04,26,12,38,20.60
2018,04,26,12,39,20.60
2018,04,26,12,40,20.50
2018,04,26,12,41,20.50
2018,04,26,12,42,20.40
2018,04,26,12,43,20.40
2018,04,26,12,44,20.40
2018,04,26,12,45,20.40
2018,04,26,12,46,20.50
2018,04,26,12,47,20.60
2018,04,26,12,48,20.70
2018,04,26,12,49,20.80
2018,04,26,12,50,20.90
2018,04,26,12,51,20.90
2018,04,26,12,52,20.90
2018,04,26,12,53,21.00
2018,04,26,12,54,21.00
2018,04,26,12,55,21.00
2018,04,26,12,56,21.10
2018,04,26,12,57,21.10
2018,04,26,12,58,21.10
2018,04,26,12,59,21.20
2018,04,26,13,00,21.20
2018,04,26,13,01,21.20
2018,04,26,13,02,21.20
2018,04,26,13,03,21.20
2018,04,26,13,04,21.20
2018,04,26,13,05,21.20
2018,04,26,13,06,21.20
2018,04,26,13,07,21.30
2018,04,26,13,08,21.40
2018,04,26,13,09,21.40
2018,04,26,13,10,21.40
2018,04,26,13,11,21.50
2018,04,26,13,12,21.50
2018,04,26,13,13,21.40
2018,04,26,13,14,21.40
2018,04,26,13,15,21.40
2018,04,26,13,16,21.40
2018,04,26,13,17,21.50
2018,04,26,13,18,21.60
2018,04,26,13,19,21.60
2018,04,26,13,20,21.70
2018,04,26,13,21,21.70
2018,04,26,13,22,21.70
2018,04,26,13,23,21.70
2018,04,26,13,24,21.80
2018,04,26,13,25,21.80
2018,04,26,13,26,21.80
2018,04,26,13,27,21.80
2018,04,26,13,28,21.80
2018,04,26,13,29,21.80
2018,04,26,13,30,21.80
2018,04,26,13,31,21.70
2018,04,26,13,32,21.70
2018,04,26,13,33,21.70
2018,04,26,13,34,21.70
2018,04,26,13,35,21.70
2018,04,26,13,36,21.70
2018,04,26,13,37,21.70
2018,04,26,13,38,21.70
2018,04,26,13,39,21.70
2018,04,26,13,40,21.70
2018,04,26,13,41,21.70
2018,04,26,13,42,21.70
2018,04,26,13,43,21.70
2018,04,26,13,44,21.70
2018,04,26,13,45,21.80
2018,04,26,13,46,21.80
2018,04,26,13,47,21.90
2018,04,26,13,48,22.00
2018,04,26,13,49,22.00
2018,04,26,13,50,22.00
2018,04,26,13,51,21.90
2018,04,26,13,52,21.90
2018,04,26,13,53,21.90
2018,04,26,13,54,21.90
2018,04,26,13,55,22.00
2018,04,26,13,56,22.00
2018,04,26,13,57,22.10
2018,04,26,13,58,22.10
2018,04,26,13,59,22.10
2018,04,26,14,00,22.10
2018,04,26,14,01,22.10
2018,04,26,14,02,22.00
2018,04,26,14,03,22.00
2018,04,26,14,04,22.10
2018,04,26,14,05,22.10
2018,04,26,14,06,22.20
2018,04,26,14,07,22.30
2018,04,26,14,08,22.30
2018,04,26,14,09,22.30
2018,04,26,14,10,22.30
2018,04,26,14,11,22.40
2018,04,26,14,12,22.40
2018,04,26,14,13,22.40
2018,04,26,14,14,22.40
2018,04,26,14,15,22.40
2018,04,26,14,16,22.50
2018,04,26,14,17,22.50
2018,04,26,14,18,22.40
2018,04,26,14,19,22.40
2018,04,26,14,20,22.50
2018,04,26,14,21,22.40
2018,04,26,14,22,22.40
2018,04,26,14,23,22.40
2018,04,26,14,24,22.40
2018,04,26,14,25,22.30
2018,04,26,14,26,22.30
2018,04,26,14,27,22.30
2018,04,26,14,28,22.30
2018,04,26,14,29,22.30
2018,04,26,14,30,22.30
2018,04,26,14,31,22.40
2018,04,26,14,32,22.40
2018,04,26,14,33,22.50
2018,04,26,14,34,22.60
2018,04,26,14,35,22.70
2018,04,26,14,36,22.70
2018,04,26,14,37,22.70
2018,04,26,14,38,22.70
2018,04,26,14,39,22.70
2018,04,26,14,40,22.80
2018,04,26,14,41,22.90
2018,04,26,14,42,23.00
2018,04,26,14,43,23.20
2018,04,26,14,44,23.20
2018,04,26,14,45,23.30
2018,04,26,14,46,23.30
2018,04,26,14,47,23.30
2018,04,26,14,48,23.20
2018,04,26,14,49,23.20
2018,04,26,14,50,23.20
2018,04,26,14,51,23.20
2018,04,26,14,52,23.20
2018,04,26,14,53,23.20
2018,04,26,14,54,23.20
2018,04,26,14,55,23.10
2018,04,26,14,56,23.10
2018,04,26,14,57,23.10
2018,04,26,14,58,23.10
2018,04,26,14,59,23.10
2018,04,26,15,00,23.10
2018,04,26,15,01,23.10
2018,04,26,15,02,23.10
2018,04,26,15,03,23.10
2018,04,26,15,04,23.00
2018,04,26,15,05,23.00
2018,04,26,15,06,22.90
2018,04,26,15,07,22.90
2018,04,26,15,08,22.90
2018,04,26,15,09,23.00
2018,04,26,15,10,23.00
2018,04,26,15,11,23.10
2018,04,26,15,12,23.20
2018,04,26,15,13,23.20
2018,04,26,15,14,23.10
2018,04,26,15,15,23.10
2018,04,26,15,16,23.10
2018,04,26,15,17,23.10
2018,04,26,15,18,23.10
2018,04,26,15,19,23.20
2018,04,26,15,20,23.30
2018,04,26,15,21,23.30
2018,04,26,15,22,23.40
2018,04,26,15,23,23.40
2018,04,26,15,24,23.30
2018,04,26,15,25,23.30
2018,04,26,15,26,23.30
2018,04,26,15,27,23.30
2018,04,26,15,28,23.30
2018,04,26,15,29,23.30
2018,04,26,15,30,23.40
2018,04,26,15,31,23.40
2018,04,26,15,32,23.40
2018,04,26,15,33,23.50
2018,04,26,15,34,23.50
2018,04,26,15,35,23.60
2018,04,26,15,36,23.60
2018,04,26,15,37,23.70
2018,04,26,15,38,23.70
2018,04,26,15,39,23.70
2018,04,26,15,40,23.70
2018,04,26,15,41,23.70
2018,04,26,15,42,23.70
2018,04,26,15,43,23.70
2018,04,26,15,44,23.70
2018,04,26,15,45,23.70
2018,04,26,15,46,23.70
2018,04,26,15,47,23.70
2018,04,26,15,48,23.70
2018,04,26,15,49,23.70
2018,04,26,15,50,23.70
2018,04,26,15,51,23.70
2018,04,26,15,52,23.70
2018,04,26,15,53,23.70
2018,04,26,15,54,23.70
2018,04,26,15,55,23.80
2018,04,26,15,56,23.70
2018,04,26,15,57,23.70
2018,04,26,15,58,23.70
2018,04,26,15,59,23.70
2018,04,26,16,00,23.80
2018,04,26,16,01,23.80
2018,04,26,16,02,23.80
2018,04,26,16,03,23.80
2018,04,26,16,04,23.80
2018,04,26,16,05,23.80
2018,04,26,16,06,23.80
2018,04,26,16,07,23.80
2018,04,26,16,08,23.80
2018,04,26,16,09,23.80
2018,04,26,16,10,23.80
2018,04,26,16,11,23.80
2018,04,26,16,12,23.80
2018,04,26,16,13,23.80
2018,04,26,16,14,23.90
2018,04,26,16,15,23.90
2018,04,26,16,16,23.90
2018,04,26,16,17,23.80
2018,04,26,16,18,23.80
2018,04,26,16,19,23.90
2018,04,26,16,20,23.90
2018,04,26,16,21,23.90
2018,04,26,16,22,23.90
2018,04,26,16,23,24.00
2018,04,26,16,24,24.00
2018,04,26,16,25,24.10
2018,04,26,16,26,24.10
2018,04,26,16,27,24.20
2018,04,26,16,28,24.20
2018,04,26,16,29,24.20
2018,04,26,16,30,24.20
2018,04,26,16,31,24.20
2018,04,26,16,32,24.20
2018,04,26,16,33,24.30
2018,04,26,16,34,24.30
2018,04,26,16,35,24.30
2018,04,26,16,36,24.30
2018,04,26,16,37,24.30
2018,04,26,16,38,24.30
2018,04,26,16,39,24.30
2018,04,26,16,40,24.30
2018,04,26,16,41,24.30
2018,04,26,16,42,24.20
2018,04,26,16,43,24.20
2018,04,26,16,44,24.20
2018,04,26,16,45,24.20
2018,04,26,16,46,24.20
2018,04,26,16,47,24.30
2018,04,26,16,48,24.30
2018,04,26,16,49,24.30
2018,04,26,16,50,24.30
2018,04,26,16,51,24.30
2018,04,26,16,52,24.30
2018,04,26,16,53,24.30
2018,04,26,16,54,24.30
2018,04,26,16,55,24.30
2018,04,26,16,56,24.40
2018,04,26,16,57,24.40
2018,04,26,16,58,24.40
2018,04,26,16,59,24.40
2018,04,26,17,00,24.40
2018,04,26,17,01,24.50
2018,04,26,17,02,24.50
2018,04,26,17,03,24.50
2018,04,26,17,04,24.50
2018,04,26,17,05,24.50
2018,04,26,17,06,24.40
2018,04,26,17,07,24.40
2018,04,26,17,08,24.50
2018,04,26,17,09,24.50
2018,04,26,17,10,24.40
2018,04,26,17,11,24.40
2018,04,26,17,12,24.40
2018,04,26,17,13,24.40
2018,04,26,17,14,24.40
2018,04,26,17,15,24.40
2018,04,26,17,16,24.40
2018,04,26,17,17,24.40
2018,04,26,17,18,24.40
2018,04,26,17,19,24.40
2018,04,26,17,20,24.30
2018,04,26,17,21,24.30
2018,04,26,17,22,24.40
2018,04,26,17,23,24.30
2018,04,26,17,24,24.30
2018,04,26,17,25,24.30